Location: Arboyeti
(42.1122°N, 44.6017°E)
Time: 20:25:17
(UTC+00:00)

NOSS 3-3 (C) - Pass Details

Date: 19 April 2021
Orbit: 810 x 1402 km, 63.4° (Epoch: 14 May)

Event Time Altitude Azimuth Distance (km) Brightness Sun altitude
Exits shadow 23:11:03 70° 302° (WNW) 970 3.8 -28.6°
Maximum altitude 23:11:08 70° 308° (NW) 971 3.9 -28.6°
Drops below altitude 10° 23:17:36 10° 32° (NNE) 2,804 7.4 -27.8°
Sets 23:20:26 0° 35° (NE) 3,852 8.4 -27.5°
